Showing default

ELEKTRON 1, 746

Orbit data source: Space-Track

ELEKTRON 1, 746 is a payload satellite owned by OKB-1 (CIS) that was launched on Thu, 30 Jan 1964 UTC via a VOSTOK 8K72 launch vehicle from the Tyuratam Missile And Space Complex (TTMTR). Payload-class satellites include a variety of spacecraft equipped with specific instruments for various scientific and technological missions. These include communications satellites like Starlink; space stations such as the ISS; scientific satellites like the Hubble; Earth observation satellites from companies like Planet Labs, Umbra, and HawkEye 360; GPS; miniature CubeSats for education and research; and military/defense satellites.

Loading next visibility...
Identifier
746, 1964-006A
Orbit
Active
Country
Flag of CISCIS
Related business
Manufacturer
OKB-1
Mission
Civil Science
Bus & Motor
OBJECT D, SRM
Mass
350 kg wet, 350 kg dry
Launch date (UTC)
1964-01-30 (62 years ago)
Launch vehicle
VOSTOK 8K72
Launch site
Tyuratam Missile And Space Complex (TTMTR)
Object type
Payload
Rocket body
Debris
Shape & HBR
Cyl + 6 Pan, 2.0 m
Radar Cross Section
2.718 m², Large (>1 m²)

Expand to show TLE details & history
Last TLE update: 11 hours ago

TLE from 11 hours ago
0 ELEKTRON 1
1 00746U 64006A   25261.25390760  .00000724  00000-0  20259-3 0  9995
2 00746  60.8692 196.6234 3003318 157.3275 219.4516  9.09877535 42488
Epoch: 2025-09-18T06:05Z
TLE epoch observation values (Epoch: 2025-09-18T06:05:37.616Z)
Latitude
0.00005°
Longitude
107.79854°
Altitude
5,819.172 km
Speed
4.924 km/s
True Right ascension
13h 06m 29s
True Declination
0° 00' 00"
Sunlit
Object was in daylight at epoch
Visualization orbit readout
Latitude
Unknown
Longitude
Unknown
Altitude
Unknown
Speed
Unknown
Apparent Right ascension
Unknown
Apparent Declination
Unknown
Sunlit
N/A
Visualization observer readout
Local Sidereal Time
09:47:12
Azimuth
Unknown
Elevation
Unknown
Doppler factor
Unknown
Orbital elements
Apogee altitude
6,223.697 km
Perigee altitude
402.519 km
Semi-major axis
9,691.245 km
Eccentricity
0.30033
Inclination
60.8692°
RAAN
196.6234°
Arg. of periapsis
157.3275°
True anomaly
202.74936°
Mean anomaly
219.4516°
Eccentric anomaly
210.67322°
Mean motion
2.27496 °/min
Orbital period
158.24 mins
BSTAR
0.00020259
Loading maneuver chart data...
Computing Atmospheric mass density...

Documentation

Showing up to 5 results
|